Weather History for York, PA

Change the Weather History Date:

Thursday, January 17, 2013

  Actual Average Record
Temperature  
Mean Temperature 37 °F -  
Max Temperature 41 °F 0 °F 55 °F (2012)
Min Temperature 33 °F - 0 °F (2009)
Degree Days  
Heating Degree Days 28    
Moisture  
Dew Point 28 °F    
Average Humidity 68    
Maximum Humidity 85    
Minimum Humidity 53    
Precipitation  
Precipitation 0.00 in - - ()
Sea Level Pressure  
Sea Level Pressure 30.08 in    
Wind  
Wind Speed 5 mph (WNW)    
Max Wind Speed 12 mph    
Max Gust Speed -    
Visibility 9 miles    
Events      
Averages and records for this station are not official NWS values.
T = Trace of Precipitation, MM = Missing Value Source: NWS Daily Summary

Daily Weather History Graph

Daily Weather History Graph

Search for Another Location

Airport:

Trip Planner

Search our weather history database for the weather conditions in past years. The results will help you decide how hot, cold, wet, or windy it might be!

Date:

Astronomy

Jan. 17, 2013 Rise Set
Actual Time 7:26 AM EST 5:09 PM EST
Civil Twilight 6:56 AM EST 5:39 PM EST
Nautical Twilight 6:23 AM EST 6:12 PM EST
Astronomical Twilight 5:51 AM EST 6:44 PM EST
Moon 10:32 AM EST (1/17) 11:58 PM EST (1/17)
Length of Visible Light 10h 42m
Length of Day
9h 43m
Waxing Crescent, 37% of the Moon is Illuminated
Jan 17
Waxing Crescent
Jan 18
First Quarter
Jan 26
Full
Feb 3
Last Quarter
Feb 10
New

Hourly Weather History & Observations

Time (EST) Temp. Windchill Dew Point Humidity Pressure Visibility Wind Dir Wind Speed Gust Speed Precip Events Conditions
12:53 AM 41.0 °F 37.1 °F 32.0 °F 70% 29.99 in 10.0 mi West 5.8 mph - N/A   Partly Cloudy
1:53 AM 39.9 °F 36.7 °F 30.0 °F 68% 30.00 in 10.0 mi West 4.6 mph - N/A   Clear
2:53 AM 41.0 °F 38.0 °F 30.0 °F 65% 30.01 in 10.0 mi SW 4.6 mph - N/A   Clear
3:53 AM 41.0 °F 36.4 °F 27.0 °F 57% 29.99 in 10.0 mi West 6.9 mph - N/A   Clear
4:53 AM 41.0 °F 39.0 °F 25.0 °F 53% 30.02 in 10.0 mi WSW 3.5 mph - N/A   Clear
5:53 AM 39.9 °F 37.8 °F 25.0 °F 55% 30.03 in 10.0 mi West 3.5 mph - N/A   Clear
6:53 AM 39.0 °F 33.4 °F 24.1 °F 55% 30.06 in 10.0 mi WNW 8.1 mph - N/A   Clear
7:53 AM 37.0 °F 31.0 °F 26.1 °F 65% 30.07 in 10.0 mi WNW 8.1 mph - N/A   Clear
8:53 AM 37.9 °F 34.4 °F 27.0 °F 65% 30.12 in 10.0 mi WNW 4.6 mph - N/A   Clear
9:53 AM 39.0 °F 33.4 °F 28.0 °F 65% 30.12 in 10.0 mi NW 8.1 mph - N/A   Clear
10:53 AM 39.0 °F 35.7 °F 28.0 °F 65% 30.14 in 10.0 mi NNW 4.6 mph - N/A   Partly Cloudy
11:53 AM 39.0 °F 33.4 °F 27.0 °F 62% 30.12 in 10.0 mi North 8.1 mph - N/A   Mostly Cloudy
12:53 PM 37.9 °F 30.5 °F 26.1 °F 62% 30.10 in 10.0 mi North 11.5 mph - N/A   Partly Cloudy
1:53 PM 39.0 °F 35.7 °F 26.1 °F 60% 30.09 in 10.0 mi NNW 4.6 mph - N/A   Partly Cloudy
2:53 PM 37.9 °F 32.7 °F 26.1 °F 62% 30.06 in 10.0 mi NNW 6.9 mph - N/A   Clear
3:53 PM 37.9 °F - 27.0 °F 65% 30.09 in 10.0 mi Calm Calm - N/A   Clear
4:53 PM 36.0 °F - 28.9 °F 76% 30.11 in 10.0 mi Calm Calm - N/A   Scattered Clouds
5:53 PM 35.1 °F - 28.9 °F 78% 30.12 in 10.0 mi Calm Calm - N/A   Overcast
6:53 PM 34.0 °F - 28.9 °F 82% 30.12 in 8.0 mi Calm Calm - N/A   Scattered Clouds
7:53 PM 34.0 °F - 28.9 °F 82% 30.11 in 7.0 mi Calm Calm - N/A   Clear
8:53 PM 33.1 °F - 28.9 °F 85% 30.09 in 7.0 mi Calm Calm - N/A   Clear
9:53 PM 34.0 °F - 28.9 °F 82% 30.10 in 7.0 mi Calm Calm - N/A   Clear
10:53 PM 34.0 °F 31.0 °F 28.0 °F 79% 30.09 in 8.0 mi West 3.5 mph - N/A   Clear
11:53 PM 34.0 °F - 27.0 °F 75% 30.06 in 8.0 mi Calm Calm - N/A   Clear